COSMOS 1275 DEB

Satellite information

Favourite Embed

Satellite Type and Status

DEBRISIN ORBIT

Key statistics

Satellite COSMOS 1275 DEB at a glance.

Uptime

16213

Days in orbit

Revolutions

≈ 14.0

Per day

Orbit

LEO

Low Earth Orbit

Inclination

83.0

Latest

Satellite identification and parameters

Extended collection of information and parameters for COSMOS 1275 DEB.

Object identification

Identified? True

Debris? True

Object name: COSMOS 1275 DEB

International designator: 1981-053EH

Object number (NORAD): 12962

Object ID (CCSDS): 12962

Country: COMMONWEALTH OF INDEPENDENT STATES (CIS)

Current information (Y/N): Y

RCS size: SMALL

Orbital parameters

Period: 102.681 minutes

Inclination: 82.965 deg

SMA: 7263.63 km

Apoapsis: 906.276 km

Periapsis: 864.714 km

RAAN: 194.8496 deg

Eccentricy: 0.00286097

Argument of periapsis: 83.8975 deg

Mean anomaly: 276.5455 deg

Mean motion: 14.02400991 rev/day

Mean motion (dot): 0.00001926 rev/day2

B* drag term: 0.0012399259 1/REarth

Two-line elements (TLE)

Creation date: Oct. 24, 2025, 2:48 a.m.

Reference frame: TEME

Reference center: EARTH

Epoch: Oct. 23, 2025, 4:36 p.m. UTC

TLE line 0: 0 COSMOS 1275 DEB

TLE line 1: 1 12962U 81053EH 25296.69199371 .00001926 00000-0 12399-2 0 9990

TLE line 2: 2 12962 82.9650 194.8496 0028610 83.8975 276.5455 14.02400991227353

Live tracking on map

Real-time ground track for satellite COSMOS 1275 DEB.

In-orbit conjunctions

A list of the most updated potential collisions computed for object COSMOS 1275 DEB.

Target Orbit TCA Probability of collision Miss distance Type
PSLV R/B SSO 2025-10-13 05:14:22 0.0001294409 363.0 (m) ROCKET BODY
COSMOS 1844 LEO 2025-10-07 15:56:46 0.0003560935 209.0 (m) PAYLOAD
CZ-4 DEB SSO 2025-05-07 08:00:45 0.0001062836 152.0 (m) DEBRIS
DELTA 1 DEB SSO 2024-11-12 17:43:05 0.0002373085 539.0 (m) DEBRIS

Associated space launch

Navigation satellite providing location information for the Tsiklon-B navigation system

COSMOS 1275 DEB was lifted into orbit during the mission ‘Kosmos-3M | Parus 27’, on board a Kosmos-3M space rocket.

The launch took place on June 4, 1981, 3:41 p.m. from 132/2.

For more information about the launch, click the button.

Launch to space Kosmos-3M | Parus 27
Kosmos-3M | Parus 27

Agency: N/A

Status: Launch Successful

Launch date: June 4, 1981, 3:41 p.m. UTC

Rocket: Kosmos-3M

Launch pad: 132/2

Location: Plesetsk Cosmodrome, Russian Federation

...

Latest news about this satellite

There are no fresh news available about this satellite. Check back as we update our databases every day.


Newsletter sign-up

Weekly statistics, charts and insights to help you stay on top of the space industry.